Location: Condor
(52.3263°N, 114.5541°W)
Time: 20:37:39
(UTC+00:00)

Oscar 19 - Pass Details

Date: 09 December 2023
Orbit: 771 x 789 km, 98.9° (Epoch: 04 March)

Event Time Altitude Azimuth Distance (km) Brightness Sun altitude
Rises 13:08:34 0° 13° (NNE) 3,276 13.9 -21.1°
Reaches altitude 10° 13:10:55 10° 9° (N) 2,347 13.1 -20.8°
Maximum altitude 13:15:59 57° 293° (WNW) 924 10.6 -20.0°
Drops below altitude 10° 13:21:02 10° 215° (SW) 2,342 12.9 -19.3°
Sets 13:23:22 0° 212° (SSW) 3,269 13.7 -18.9°
